| time (UTC) | temp F | wind direction | speed MPH | gust MPH | rain 1hr in | rain 24hr in | rain mn in | humidity % | barometer mb |
| 20260504210024 | 82 | 205 | 1.0 | 8.0 | 0.00 | 0.00 | 0.00 | 64 | 1011.0 |
| 20260504204526 | 80 | 236 | 1.0 | 8.0 | 0.00 | 0.00 | 0.00 | 68 | 1011.2 |
| 20260504203010 | 79 | 86 | 1.0 | 7.0 | 0.00 | 0.00 | 0.00 | 65 | 1011.4 |
| 20260504201516 | 81 | 75 | 2.0 | 13.0 | 0.00 | 0.00 | 0.00 | 63 | 1011.7 |
| 20260504200019 | 81 | 180 | 2.0 | 8.0 | 0.00 | 0.00 | 0.00 | 63 | 1011.8 |
| 20260504194525 | 80 | 230 | 2.0 | 13.0 | 0.00 | 0.00 | 0.00 | 64 | 1012.3 |
| 20260504193010 | 81 | 259 | 2.0 | 8.0 | 0.00 | 0.00 | 0.00 | 61 | 1012.4 |
| 20260504191511 | 79 | 255 | 3.0 | 9.0 | 0.00 | 0.00 | 0.00 | 68 | 1012.7 |
| 20260504190003 | 80 | 257 | 2.0 | 9.0 | 0.00 | 0.00 | 0.00 | 63 | 1013.0 |
| 20260504184504 | 79 | 140 | 3.0 | 13.0 | 0.00 | 0.00 | 0.00 | 62 | 1012.9 |
| 20260504183006 | 79 | 276 | 2.0 | 7.0 | 0.00 | 0.00 | 0.00 | 66 | 1013.4 |
| 20260504181510 | 79 | 99 | 2.0 | 8.0 | 0.00 | 0.00 | 0.00 | 67 | 1013.9 |
| 20260504180028 | 78 | 113 | 2.0 | 9.0 | 0.00 | 0.00 | 0.00 | 64 | 1013.9 |
| 20260504174504 | 76 | 213 | 3.0 | 11.0 | 0.00 | 0.00 | 0.00 | 66 | 1014.0 |
| 20260504173006 | 75 | 202 | 1.0 | 11.0 | 0.00 | 0.00 | 0.00 | 68 | 1014.4 |
| 20260504171510 | 74 | 240 | 3.0 | 13.0 | 0.00 | 0.00 | 0.00 | 70 | 1014.8 |
| 20260504081503 | 62 | 311 | 0.0 | 3.0 | 0.00 | 0.01 | 0.00 | 77 | 1015.7 |
| 20260504050013 | 64 | 173 | 0.0 | 3.0 | 0.00 | 0.01 | 0.00 | 69 | 1017.8 |
| 20260504044508 | 64 | 274 | 0.0 | 5.0 | 0.00 | 0.01 | 0.01 | 67 | 1017.9 |
| 20260504043012 | 64 | 72 | 1.0 | 4.0 | 0.00 | 0.01 | 0.01 | 65 | 1018.0 |
| 20260504041512 | 64 | 198 | 0.0 | 3.0 | 0.00 | 0.01 | 0.01 | 66 | 1018.2 |
| 20260504040008 | 62 | 104 | 0.0 | 3.0 | 0.00 | 0.01 | 0.01 | 67 | 1018.3 |
| 20260504034510 | 60 | 105 | 0.0 | 0.0 | 0.00 | 0.01 | 0.01 | 70 | 1017.9 |
| 20260504033012 | 60 | 105 | 0.0 | 0.0 | 0.00 | 0.01 | 0.01 | 70 | 1017.9 |
| 20260504031514 | 61 | 105 | 0.0 | 0.0 | 0.00 | 0.01 | 0.01 | 69 | 1018.0 |
| 20260504030015 | 62 | 105 | 0.0 | 0.0 | 0.00 | 0.01 | 0.01 | 64 | 1018.0 |
| 20260504024510 | 63 | 105 | 0.0 | 0.0 | 0.00 | 0.01 | 0.01 | 64 | 1018.1 |
| 20260504023016 | 63 | 105 | 0.0 | 0.0 | 0.00 | 0.01 | 0.01 | 60 | 1017.7 |
| 20260504021517 | 64 | 105 | 0.0 | 0.0 | 0.00 | 0.01 | 0.01 | 62 | 1017.8 |
| 20260504020016 | 65 | 105 | 0.0 | 0.0 | 0.00 | 0.01 | 0.01 | 56 | 1017.7 |
| 20260504014515 | 66 | 105 | 0.0 | 0.0 | 0.00 | 0.01 | 0.01 | 55 | 1017.3 |
| 20260504013021 | 67 | 105 | 0.0 | 1.0 | 0.00 | 0.01 | 0.01 | 53 | 1017.3 |
| 20260504011520 | 68 | 103 | 0.0 | 2.0 | 0.00 | 0.01 | 0.01 | 52 | 1017.4 |
| 20260504010019 | 69 | 140 | 0.0 | 2.0 | 0.00 | 0.01 | 0.01 | 51 | 1017.3 |
| 20260504004521 | 70 | 104 | 0.0 | 2.0 | 0.00 | 0.01 | 0.01 | 50 | 1017.2 |
| 20260504003023 | 72 | 255 | 0.0 | 2.0 | 0.00 | 0.01 | 0.01 | 49 | 1017.3 |
| 20260504001517 | 72 | 138 | 1.0 | 8.0 | 0.00 | 0.01 | 0.01 | 47 | 1017.5 |
| 20260504000012 | 72 | 156 | 0.0 | 2.0 | 0.00 | 0.01 | 0.01 | 48 | 1017.6 |
| 20260503234504 | 73 | 132 | 0.0 | 4.0 | 0.00 | 0.01 | 0.01 | 51 | 1017.6 |
| 20260503233010 | 74 | 123 | 0.0 | 7.0 | 0.00 | 0.01 | 0.01 | 50 | 1017.8 |
| 20260503231515 | 73 | 182 | 0.0 | 2.0 | 0.00 | 0.01 | 0.01 | 50 | 1017.8 |
| 20260503230022 | 75 | 277 | 1.0 | 4.0 | 0.00 | 0.01 | 0.01 | 46 | 1017.6 |
| 20260503224503 | 77 | 59 | 1.0 | 10.0 | 0.00 | 0.01 | 0.01 | 41 | 1017.7 |
| 20260503223023 | 77 | 24 | 1.0 | 6.0 | 0.00 | 0.01 | 0.01 | 43 | 1018.2 |
| 20260503221514 | 78 | 223 | 1.0 | 6.0 | 0.00 | 0.01 | 0.01 | 44 | 1018.3 |
| 20260503220019 | 79 | 225 | 2.0 | 5.0 | 0.00 | 0.02 | 0.01 | 43 | 1018.5 |
| 20260503214524 | 76 | 280 | 1.0 | 6.0 | 0.00 | 0.02 | 0.01 | 44 | 1018.7 |
| 20260503213024 | 78 | 128 | 1.0 | 6.0 | 0.00 | 0.02 | 0.01 | 42 | 1019.2 |
| 20260503211509 | 77 | 113 | 1.0 | 6.0 | 0.00 | 0.02 | 0.01 | 41 | 1019.3 |